Terug naar catalogus

STARLINK-37464

ActiefCommunicatieVLEO
NORAD 69266·PAYLOAD·🇺🇸 United States

Gelanceerd May 29, 2026 vanaf Cape Canaveral Space Force Station

Loading…

Volgende Passages (komende 24 uur)

TLE

VersSource: CelesTrak SupGP

Epoch: Sep 14, 2026, 14:38 UTC

1 69266C 26117AE  26257.61020833  .00054513  00000+0  16110-2 0  2576
2 69266  53.1579 180.8882 0001245  90.0110  63.4496 15.34356096    14

Volg STARLINK-37464 in realtime met AllMySat

Download on the App Store